Time,TemperatureF,DewpointF,PressureIn,WindDirection,WindDirectionDegrees,WindSpeedMPH,WindSpeedGustMPH,Humidity,HourlyPrecipIn,Conditions,Clouds,dailyrainin,SoftwareType,DateUTC
2013-03-04 00:00:00,20.4,19.4,30.15,NNW,345,0.0,0.0,96,0.00,,,0.00,Wunderground v.1.15,2013-03-04 05:00:00,
2013-03-04 00:01:00,20.4,19.4,30.15,NNW,346,0.0,0.0,96,0.00,,,0.00,Wunderground v.1.15,2013-03-04 05:01:00,
2013-03-04 00:03:00,20.5,19.5,30.15,NNW,345,0.0,0.0,96,0.00,,,0.00,Wunderground v.1.15,2013-03-04 05:03:00,
2013-03-04 00:08:00,20.6,19.6,30.15,NNW,345,0.0,0.0,96,0.00,,,0.00,Wunderground v.1.15,2013-03-04 05:08:00,
2013-03-04 00:14:00,20.3,19.1,30.15,NNW,345,0.0,0.0,95,0.00,,,0.00,Wunderground v.1.15,2013-03-04 05:14:00,
2013-03-04 00:19:00,20.0,18.8,30.15,NNW,346,0.0,0.0,95,0.00,,,0.00,Wunderground v.1.15,2013-03-04 05:19:00,
2013-03-04 00:25:00,20.3,19.3,30.15,NNW,345,0.0,0.0,96,0.00,,,0.00,Wunderground v.1.15,2013-03-04 05:25:00,
2013-03-04 00:31:00,20.6,19.6,30.15,NNW,346,0.0,0.0,96,0.00,,,0.00,Wunderground v.1.15,2013-03-04 05:31:00,
2013-03-04 00:36:00,20.2,19.0,30.16,NNW,346,0.0,0.0,95,0.00,,,0.00,Wunderground v.1.15,2013-03-04 05:36:00,
2013-03-04 00:42:00,19.5,18.3,30.16,NNW,345,0.0,0.0,95,0.00,,,0.00,Wunderground v.1.15,2013-03-04 05:42:00,
2013-03-04 00:47:00,19.0,17.6,30.16,NNW,345,0.0,0.0,94,0.00,,,0.00,Wunderground v.1.15,2013-03-04 05:47:00,
2013-03-04 00:53:00,19.1,18.1,30.16,NNW,345,0.0,0.0,96,0.00,,,0.00,Wunderground v.1.15,2013-03-04 05:53:00,
2013-03-04 00:59:00,19.4,18.4,30.16,NNW,345,0.0,0.0,96,0.00,,,0.00,Wunderground v.1.15,2013-03-04 05:59:00,
2013-03-04 01:05:00,19.8,19.1,30.16,NNW,345,0.0,0.0,97,0.00,,,0.00,Wunderground v.1.15,2013-03-04 06:05:00,
2013-03-04 01:10:00,20.1,19.4,30.17,NNW,345,0.0,0.0,97,0.00,,,0.00,Wunderground v.1.15,2013-03-04 06:10:00,
2013-03-04 01:15:00,20.3,19.6,30.17,NNW,346,0.0,0.0,97,0.00,,,0.00,Wunderground v.1.15,2013-03-04 06:15:00,
2013-03-04 01:21:00,20.4,19.7,30.17,NNW,345,0.0,0.0,97,0.00,,,0.00,Wunderground v.1.15,2013-03-04 06:21:00,
2013-03-04 01:27:00,20.4,19.4,30.17,NNW,345,0.0,0.0,96,0.00,,,0.00,Wunderground v.1.15,2013-03-04 06:27:00,
2013-03-04 01:33:00,20.5,19.5,30.17,NNW,345,0.0,0.0,96,0.00,,,0.00,Wunderground v.1.15,2013-03-04 06:33:00,
2013-03-04 01:38:00,20.4,19.4,30.17,NNW,346,0.0,0.0,96,0.00,,,0.00,Wunderground v.1.15,2013-03-04 06:38:00,
2013-03-04 01:44:00,20.4,19.4,30.17,NNW,345,0.0,0.0,96,0.00,,,0.00,Wunderground v.1.15,2013-03-04 06:44:00,
2013-03-04 01:50:00,20.3,19.3,30.17,NNW,346,0.0,0.0,96,0.00,,,0.00,Wunderground v.1.15,2013-03-04 06:50:00,
2013-03-04 01:55:00,20.0,19.0,30.17,NNW,346,0.0,0.0,96,0.00,,,0.00,Wunderground v.1.15,2013-03-04 06:55:00,
2013-03-04 02:00:00,20.1,19.1,30.17,NNW,345,0.0,0.0,96,0.00,,,0.00,Wunderground v.1.15,2013-03-04 07:00:00,
2013-03-04 02:06:00,19.9,18.9,30.17,NNW,346,0.0,0.0,96,0.00,,,0.00,Wunderground v.1.15,2013-03-04 07:06:00,
2013-03-04 02:11:00,20.0,19.0,30.17,NNW,346,0.0,0.0,96,0.00,,,0.00,Wunderground v.1.15,2013-03-04 07:11:00,
2013-03-04 02:17:00,20.4,19.7,30.17,NNW,346,0.0,0.0,97,0.00,,,0.00,Wunderground v.1.15,2013-03-04 07:17:00,
2013-03-04 02:23:00,20.5,19.8,30.18,NNW,346,0.0,0.0,97,0.00,,,0.00,Wunderground v.1.15,2013-03-04 07:23:00,
2013-03-04 02:29:00,20.4,19.4,30.18,NNW,345,0.0,0.0,96,0.00,,,0.00,Wunderground v.1.15,2013-03-04 07:29:00,
2013-03-04 02:35:00,20.3,19.3,30.18,NNW,345,0.0,0.0,96,0.00,,,0.00,Wunderground v.1.15,2013-03-04 07:35:00,
2013-03-04 02:41:00,20.4,19.4,30.18,NNW,345,0.0,0.0,96,0.00,,,0.00,Wunderground v.1.15,2013-03-04 07:41:00,
2013-03-04 02:47:00,20.2,19.2,30.18,NNW,345,0.0,0.0,96,0.00,,,0.00,Wunderground v.1.15,2013-03-04 07:47:00,
2013-03-04 02:53:00,19.7,18.5,30.18,NNW,345,0.0,0.0,95,0.00,,,0.00,Wunderground v.1.15,2013-03-04 07:53:00,
2013-03-04 02:59:00,19.9,18.9,30.18,NNW,346,0.0,0.0,96,0.00,,,0.00,Wunderground v.1.15,2013-03-04 07:59:00,
2013-03-04 03:04:00,20.1,19.1,30.18,NNW,345,0.0,0.0,96,0.00,,,0.00,Wunderground v.1.15,2013-03-04 08:04:00,
2013-03-04 03:10:00,20.2,19.2,30.18,NNW,345,0.0,0.0,96,0.00,,,0.00,Wunderground v.1.15,2013-03-04 08:10:00,
2013-03-04 03:16:00,20.0,19.0,30.18,NNW,345,0.0,0.0,96,0.00,,,0.00,Wunderground v.1.15,2013-03-04 08:16:00,
2013-03-04 03:22:00,19.6,18.4,30.19,NNW,346,0.0,0.0,95,0.00,,,0.00,Wunderground v.1.15,2013-03-04 08:22:00,
2013-03-04 03:29:00,19.5,18.5,30.19,NNW,345,0.0,0.0,96,0.00,,,0.00,Wunderground v.1.15,2013-03-04 08:29:00,
2013-03-04 03:35:00,19.4,18.4,30.19,NNW,346,0.0,0.0,96,0.00,,,0.00,Wunderground v.1.15,2013-03-04 08:35:00,
2013-03-04 03:41:00,19.1,18.1,30.18,NNW,346,0.0,0.0,96,0.00,,,0.00,Wunderground v.1.15,2013-03-04 08:41:00,
2013-03-04 03:47:00,19.3,18.3,30.18,NNW,345,0.0,0.0,96,0.00,,,0.00,Wunderground v.1.15,2013-03-04 08:47:00,
2013-03-04 03:53:00,19.4,18.4,30.18,NNW,345,0.0,0.0,96,0.00,,,0.00,Wunderground v.1.15,2013-03-04 08:53:00,
2013-03-04 03:59:00,19.8,18.8,30.18,NNW,345,0.0,0.0,96,0.00,,,0.00,Wunderground v.1.15,2013-03-04 08:59:00,
2013-03-04 04:04:00,19.8,18.8,30.18,NNW,346,0.0,0.0,96,0.00,,,0.00,Wunderground v.1.15,2013-03-04 09:04:00,
2013-03-04 04:10:00,19.4,18.4,30.18,NNW,345,0.0,0.0,96,0.00,,,0.00,Wunderground v.1.15,2013-03-04 09:10:00,
2013-03-04 04:15:00,19.1,18.1,30.18,NNW,345,0.0,0.0,96,0.00,,,0.00,Wunderground v.1.15,2013-03-04 09:15:00,
2013-03-04 04:21:00,19.3,18.3,30.18,SSW,211,0.0,0.0,96,0.00,,,0.00,Wunderground v.1.15,2013-03-04 09:21:00,
2013-03-04 04:27:00,19.5,18.5,30.18,SSW,211,0.0,0.0,96,0.00,,,0.00,Wunderground v.1.15,2013-03-04 09:27:00,
2013-03-04 04:33:00,19.5,18.5,30.18,SW,214,0.0,0.0,96,0.00,,,0.00,Wunderground v.1.15,2013-03-04 09:33:00,
2013-03-04 04:39:00,19.5,18.5,30.19,SSW,205,0.0,0.0,96,0.00,,,0.00,Wunderground v.1.15,2013-03-04 09:39:00,
2013-03-04 04:45:00,19.3,18.3,30.19,SSW,206,0.0,0.0,96,0.00,,,0.00,Wunderground v.1.15,2013-03-04 09:45:00,
2013-03-04 04:51:00,19.2,18.2,30.19,SSW,205,0.0,0.0,96,0.00,,,0.00,Wunderground v.1.15,2013-03-04 09:51:00,
2013-03-04 04:57:00,19.3,18.3,30.19,SSW,204,0.0,0.0,96,0.00,,,0.00,Wunderground v.1.15,2013-03-04 09:57:00,
2013-03-04 05:02:00,19.5,18.8,30.19,SSW,204,0.0,0.0,97,0.00,,,0.00,Wunderground v.1.15,2013-03-04 10:02:00,
2013-03-04 05:08:00,19.4,18.4,30.20,SSW,204,0.0,0.0,96,0.00,,,0.00,Wunderground v.1.15,2013-03-04 10:08:00,
2013-03-04 05:14:00,19.4,18.7,30.20,SSW,204,0.0,0.0,97,0.00,,,0.00,Wunderground v.1.15,2013-03-04 10:14:00,
2013-03-04 05:19:00,19.3,18.3,30.20,SSW,205,0.0,0.0,96,0.00,,,0.00,Wunderground v.1.15,2013-03-04 10:19:00,
2013-03-04 05:25:00,19.9,19.2,30.20,SSW,204,0.0,0.0,97,0.00,,,0.00,Wunderground v.1.15,2013-03-04 10:25:00,
2013-03-04 05:31:00,20.1,19.4,30.20,SSW,204,0.0,0.0,97,0.00,,,0.00,Wunderground v.1.15,2013-03-04 10:31:00,
2013-03-04 05:37:00,19.7,18.7,30.20,SSW,204,0.0,0.0,96,0.00,,,0.00,Wunderground v.1.15,2013-03-04 10:37:00,
2013-03-04 05:43:00,19.3,18.1,30.21,SSW,204,0.0,0.0,95,0.00,,,0.00,Wunderground v.1.15,2013-03-04 10:43:00,
2013-03-04 05:48:00,19.1,18.1,30.21,SSW,204,0.0,0.0,96,0.00,,,0.00,Wunderground v.1.15,2013-03-04 10:48:00,
2013-03-04 05:54:00,19.0,18.0,30.21,SSW,204,0.0,0.0,96,0.00,,,0.00,Wunderground v.1.15,2013-03-04 10:54:00,
2013-03-04 06:00:00,18.6,17.4,30.22,SSW,205,0.0,0.0,95,0.00,,,0.00,Wunderground v.1.15,2013-03-04 11:00:00,
2013-03-04 06:06:00,18.4,17.5,30.22,SSW,204,0.0,0.0,96,0.00,,,0.00,Wunderground v.1.15,2013-03-04 11:06:00,
2013-03-04 06:11:00,18.5,17.6,30.22,SSW,204,0.0,0.0,96,0.00,,,0.00,Wunderground v.1.15,2013-03-04 11:11:00,
2013-03-04 06:17:00,18.8,18.1,30.22,SSW,204,0.0,0.0,97,0.00,,,0.00,Wunderground v.1.15,2013-03-04 11:17:00,
2013-03-04 06:23:00,19.0,18.3,30.22,SSW,203,0.0,0.0,97,0.00,,,0.00,Wunderground v.1.15,2013-03-04 11:23:00,
2013-03-04 06:29:00,19.3,18.6,30.22,SSW,203,0.0,0.0,97,0.00,,,0.00,Wunderground v.1.15,2013-03-04 11:29:00,
2013-03-04 06:34:00,19.4,18.7,30.22,SSW,204,0.0,0.0,97,0.00,,,0.00,Wunderground v.1.15,2013-03-04 11:34:00,
2013-03-04 06:40:00,19.3,18.3,30.22,SSW,204,0.0,0.0,96,0.00,,,0.00,Wunderground v.1.15,2013-03-04 11:40:00,
2013-03-04 06:46:00,19.1,18.1,30.22,SSW,204,0.0,0.0,96,0.00,,,0.00,Wunderground v.1.15,2013-03-04 11:46:00,
2013-03-04 06:52:00,18.6,17.4,30.22,SSW,204,0.0,0.0,95,0.00,,,0.00,Wunderground v.1.15,2013-03-04 11:52:00,
2013-03-04 06:58:00,18.3,17.4,30.22,SSW,204,0.0,0.0,96,0.00,,,0.00,Wunderground v.1.15,2013-03-04 11:58:00,
2013-03-04 07:03:00,18.3,17.4,30.22,SSW,204,0.0,0.0,96,0.00,,,0.00,Wunderground v.1.15,2013-03-04 12:03:00,
2013-03-04 07:09:00,18.6,17.7,30.23,SSW,203,0.0,0.0,96,0.00,,,0.00,Wunderground v.1.15,2013-03-04 12:09:00,
2013-03-04 07:15:00,18.9,18.2,30.22,SSW,204,0.0,0.0,97,0.00,,,0.00,Wunderground v.1.15,2013-03-04 12:15:00,
2013-03-04 07:21:00,19.2,18.2,30.23,SSW,204,0.0,0.0,96,0.00,,,0.00,Wunderground v.1.15,2013-03-04 12:21:00,
2013-03-04 07:27:00,19.6,18.6,30.23,SSW,204,0.0,0.0,96,0.00,,,0.00,Wunderground v.1.15,2013-03-04 12:27:00,
2013-03-04 07:33:00,20.5,19.5,30.23,SSW,204,0.0,0.0,96,0.00,,,0.00,Wunderground v.1.15,2013-03-04 12:33:00,
2013-03-04 07:38:00,20.5,19.5,30.23,SSW,203,0.0,0.0,96,0.00,,,0.00,Wunderground v.1.15,2013-03-04 12:38:00,
2013-03-04 07:44:00,20.7,19.7,30.23,SSW,204,0.0,0.0,96,0.00,,,0.00,Wunderground v.1.15,2013-03-04 12:44:00,
2013-03-04 07:50:00,21.3,20.3,30.23,SSW,204,0.0,0.0,96,0.00,,,0.00,Wunderground v.1.15,2013-03-04 12:50:00,
2013-03-04 07:55:00,21.9,20.9,30.23,SSW,197,0.0,0.0,96,0.00,,,0.00,Wunderground v.1.15,2013-03-04 12:55:00,
2013-03-04 08:00:00,22.9,22.2,30.23,SSW,197,0.0,0.0,97,0.00,,,0.00,Wunderground v.1.15,2013-03-04 13:00:00,
2013-03-04 08:06:00,23.7,22.7,30.23,SE,139,0.0,0.0,96,0.00,,,0.00,Wunderground v.1.15,2013-03-04 13:06:00,
2013-03-04 08:12:00,24.6,23.6,30.23,SE,140,0.0,0.0,96,0.00,,,0.00,Wunderground v.1.15,2013-03-04 13:12:00,
2013-03-04 08:18:00,25.5,24.3,30.23,SE,139,0.0,0.0,95,0.00,,,0.00,Wunderground v.1.15,2013-03-04 13:18:00,
2013-03-04 08:24:00,26.4,24.9,30.23,ESE,112,0.0,0.0,94,0.00,,,0.00,Wunderground v.1.15,2013-03-04 13:24:00,
2013-03-04 08:30:00,26.7,24.4,30.23,ESE,103,0.0,0.0,91,0.00,,,0.00,Wunderground v.1.15,2013-03-04 13:30:00,
2013-03-04 08:36:00,27.1,24.3,30.23,ESE,112,1.0,1.0,89,0.00,,,0.00,Wunderground v.1.15,2013-03-04 13:36:00,
2013-03-04 08:42:00,27.6,24.5,30.23,East,101,1.0,2.0,88,0.00,,,0.00,Wunderground v.1.15,2013-03-04 13:42:00,
2013-03-04 08:47:00,28.0,24.1,30.23,East,101,2.0,2.0,85,0.00,,,0.00,Wunderground v.1.15,2013-03-04 13:47:00,
2013-03-04 08:53:00,28.5,24.0,30.23,ESE,108,2.0,2.0,83,0.00,,,0.00,Wunderground v.1.15,2013-03-04 13:53:00,
2013-03-04 08:59:00,29.0,24.5,30.23,East,98,2.0,2.0,83,0.00,,,0.00,Wunderground v.1.15,2013-03-04 13:59:00,
2013-03-04 09:05:00,29.6,25.1,30.23,ENE,70,1.0,2.0,83,0.00,,,0.00,Wunderground v.1.15,2013-03-04 14:05:00,
2013-03-04 09:11:00,29.7,24.9,30.23,ESE,103,2.0,2.0,82,0.00,,,0.00,Wunderground v.1.15,2013-03-04 14:11:00,
2013-03-04 09:16:00,29.8,24.1,30.23,East,89,2.0,4.0,79,0.00,,,0.00,Wunderground v.1.15,2013-03-04 14:16:00,
2013-03-04 09:22:00,30.1,24.1,30.23,ESE,121,3.0,4.0,78,0.00,,,0.00,Wunderground v.1.15,2013-03-04 14:22:00,
2013-03-04 09:28:00,30.5,24.5,30.23,SE,144,3.0,4.0,78,0.00,,,0.00,Wunderground v.1.15,2013-03-04 14:28:00,
2013-03-04 09:34:00,31.1,23.5,30.23,SE,142,3.0,3.0,73,0.00,,,0.00,Wunderground v.1.15,2013-03-04 14:34:00,
2013-03-04 09:40:00,31.9,24.6,30.23,ESE,120,3.0,3.0,74,0.00,,,0.00,Wunderground v.1.15,2013-03-04 14:40:00,
2013-03-04 09:46:00,32.0,24.0,30.23,SW,221,3.0,4.0,72,0.00,,,0.00,Wunderground v.1.15,2013-03-04 14:46:00,
2013-03-04 09:52:00,32.4,23.4,30.23,South,190,3.0,4.0,69,0.00,,,0.00,Wunderground v.1.15,2013-03-04 14:52:00,
2013-03-04 09:58:00,32.4,22.7,30.23,South,170,4.0,4.0,67,0.00,,,0.00,Wunderground v.1.15,2013-03-04 14:58:00,
2013-03-04 10:04:00,32.7,24.0,30.22,SE,136,4.0,4.0,70,0.00,,,0.00,Wunderground v.1.15,2013-03-04 15:04:00,
2013-03-04 10:10:00,32.8,22.3,30.22,SSW,208,4.0,4.0,65,0.00,,,0.00,Wunderground v.1.15,2013-03-04 15:10:00,
2013-03-04 10:16:00,33.2,22.7,30.22,SSE,153,4.0,5.0,65,0.00,,,0.00,Wunderground v.1.15,2013-03-04 15:16:00,
2013-03-04 10:21:00,33.6,24.2,30.22,SSE,147,3.0,4.0,68,0.00,,,0.00,Wunderground v.1.15,2013-03-04 15:21:00,
2013-03-04 10:27:00,33.8,24.0,30.22,SE,141,3.0,7.0,67,0.00,,,0.00,Wunderground v.1.15,2013-03-04 15:27:00,
2013-03-04 10:33:00,34.1,23.2,30.22,SE,127,3.0,4.0,64,0.00,,,0.00,Wunderground v.1.15,2013-03-04 15:33:00,
2013-03-04 10:39:00,34.1,24.6,30.21,SE,137,3.0,6.0,68,0.00,,,0.00,Wunderground v.1.15,2013-03-04 15:39:00,
2013-03-04 10:44:00,34.5,23.6,30.21,SE,131,4.0,7.0,64,0.00,,,0.00,Wunderground v.1.15,2013-03-04 15:44:00,
2013-03-04 10:50:00,34.6,23.7,30.21,SE,141,4.0,6.0,64,0.00,,,0.00,Wunderground v.1.15,2013-03-04 15:50:00,
2013-03-04 10:55:00,34.8,25.0,30.21,SSE,156,4.0,6.0,67,0.00,,,0.00,Wunderground v.1.15,2013-03-04 15:55:00,
2013-03-04 11:00:00,35.4,25.5,30.21,SE,142,3.0,3.0,67,0.00,,,0.00,Wunderground v.1.15,2013-03-04 16:00:00,
2013-03-04 11:06:00,36.3,24.9,30.21,SE,142,2.0,4.0,63,0.00,,,0.00,Wunderground v.1.15,2013-03-04 16:06:00,
2013-03-04 11:12:00,35.9,24.5,30.21,SE,129,3.0,6.0,63,0.00,,,0.00,Wunderground v.1.15,2013-03-04 16:12:00,
2013-03-04 11:18:00,36.1,23.9,30.21,SW,217,3.0,6.0,61,0.00,,,0.01,Wunderground v.1.15,2013-03-04 16:18:00,
2013-03-04 11:23:00,36.9,24.3,30.21,SW,232,2.0,3.0,60,0.00,,,0.01,Wunderground v.1.15,2013-03-04 16:23:00,
2013-03-04 11:29:00,37.0,24.0,30.21,SSE,161,2.0,5.0,59,0.00,,,0.01,Wunderground v.1.15,2013-03-04 16:29:00,
2013-03-04 11:35:00,37.1,24.1,30.21,SSE,148,3.0,3.0,59,0.00,,,0.01,Wunderground v.1.15,2013-03-04 16:35:00,
2013-03-04 11:41:00,37.5,24.9,30.20,ESE,108,3.0,5.0,60,0.00,,,0.01,Wunderground v.1.15,2013-03-04 16:41:00,
2013-03-04 11:47:00,37.1,23.7,30.20,SE,139,4.0,5.0,58,0.00,,,0.02,Wunderground v.1.15,2013-03-04 16:47:00,
2013-03-04 11:53:00,38.0,24.9,30.20,East,97,3.0,8.0,59,0.00,,,0.02,Wunderground v.1.15,2013-03-04 16:53:00,
2013-03-04 11:59:00,37.8,23.5,30.19,ESE,121,4.0,8.0,56,0.00,,,0.02,Wunderground v.1.15,2013-03-04 16:59:00,
2013-03-04 12:05:00,38.5,24.1,30.19,SE,127,4.0,5.0,56,0.00,,,0.02,Wunderground v.1.15,2013-03-04 17:05:00,
2013-03-04 12:11:00,38.8,25.7,30.19,SSE,150,3.0,4.0,59,0.00,,,0.03,Wunderground v.1.15,2013-03-04 17:11:00,
2013-03-04 12:16:00,38.8,22.2,30.19,East,79,4.0,5.0,51,0.00,,,0.03,Wunderground v.1.15,2013-03-04 17:16:00,
2013-03-04 12:22:00,38.7,22.6,30.19,SE,131,4.0,4.0,52,0.00,,,0.03,Wunderground v.1.15,2013-03-04 17:22:00,
2013-03-04 12:28:00,38.9,23.2,30.19,ESE,114,3.0,6.0,53,0.00,,,0.03,Wunderground v.1.15,2013-03-04 17:28:00,
2013-03-04 12:33:00,38.9,23.2,30.19,East,84,3.0,4.0,53,0.00,,,0.03,Wunderground v.1.15,2013-03-04 17:33:00,
2013-03-04 12:39:00,38.8,24.9,30.18,ESE,117,3.0,7.0,57,0.00,,,0.03,Wunderground v.1.15,2013-03-04 17:39:00,
2013-03-04 12:45:00,39.5,24.2,30.18,South,169,4.0,5.0,54,0.00,,,0.03,Wunderground v.1.15,2013-03-04 17:45:00,
2013-03-04 12:51:00,39.8,24.0,30.17,SSE,151,2.0,7.0,53,0.00,,,0.03,Wunderground v.1.15,2013-03-04 17:51:00,
2013-03-04 12:57:00,39.7,23.0,30.17,SSE,149,4.0,7.0,51,0.00,,,0.03,Wunderground v.1.15,2013-03-04 17:57:00,
2013-03-04 13:02:00,40.0,24.2,30.17,SSE,153,3.0,3.0,53,0.00,,,0.03,Wunderground v.1.15,2013-03-04 18:02:00,
2013-03-04 13:08:00,40.2,24.4,30.16,SE,131,2.0,5.0,53,0.00,,,0.03,Wunderground v.1.15,2013-03-04 18:08:00,
2013-03-04 13:13:00,40.1,24.8,30.16,ENE,77,4.0,7.0,54,0.00,,,0.03,Wunderground v.1.15,2013-03-04 18:13:00,
2013-03-04 13:19:00,40.0,23.3,30.16,ESE,121,4.0,7.0,51,0.00,,,0.03,Wunderground v.1.15,2013-03-04 18:19:00,
2013-03-04 13:24:00,41.0,24.2,30.16,SE,142,3.0,4.0,51,0.00,,,0.03,Wunderground v.1.15,2013-03-04 18:24:00,
2013-03-04 13:30:00,41.5,25.6,30.15,SSE,165,3.0,3.0,53,0.00,,,0.03,Wunderground v.1.15,2013-03-04 18:30:00,
2013-03-04 13:31:00,41.6,26.2,30.15,South,180,3.0,5.0,54,0.00,,,0.03,Wunderground v.1.15,2013-03-04 18:31:00,
2013-03-04 13:35:00,41.6,24.8,30.15,SSW,203,3.0,5.0,51,0.00,,,0.03,Wunderground v.1.15,2013-03-04 18:35:00,
2013-03-04 13:37:00,41.6,24.8,30.14,ESE,106,3.0,5.0,51,0.00,,,0.03,Wunderground v.1.15,2013-03-04 18:37:00,
2013-03-04 13:42:00,42.2,26.7,30.14,ESE,114,2.0,3.0,54,0.00,,,0.03,Wunderground v.1.15,2013-03-04 18:42:00,
2013-03-04 13:48:00,42.0,25.2,30.14,ESE,103,3.0,6.0,51,0.00,,,0.03,Wunderground v.1.15,2013-03-04 18:48:00,
2013-03-04 13:54:00,42.0,25.2,30.13,South,174,4.0,5.0,51,0.00,,,0.03,Wunderground v.1.15,2013-03-04 18:54:00,
2013-03-04 14:00:00,42.4,25.1,30.13,ESE,113,3.0,3.0,50,0.00,,,0.03,Wunderground v.1.15,2013-03-04 19:00:00,
2013-03-04 14:06:00,42.4,25.1,30.13,ESE,111,2.0,3.0,50,0.00,,,0.03,Wunderground v.1.15,2013-03-04 19:06:00,
2013-03-04 14:11:00,42.2,23.9,30.13,SE,124,3.0,7.0,48,0.00,,,0.03,Wunderground v.1.15,2013-03-04 19:11:00,
2013-03-04 14:17:00,42.8,24.4,30.13,SE,141,4.0,7.0,48,0.00,,,0.03,Wunderground v.1.15,2013-03-04 19:17:00,
2013-03-04 14:23:00,42.5,23.2,30.12,SSE,150,3.0,4.0,46,0.00,,,0.03,Wunderground v.1.15,2013-03-04 19:23:00,
2013-03-04 14:28:00,42.9,25.0,30.12,East,100,3.0,5.0,49,0.00,,,0.03,Wunderground v.1.15,2013-03-04 19:28:00,
2013-03-04 14:34:00,42.7,23.8,30.12,NE,50,3.0,6.0,47,0.00,,,0.03,Wunderground v.1.15,2013-03-04 19:34:00,
2013-03-04 14:40:00,43.2,24.8,30.11,SSE,147,3.0,3.0,48,0.00,,,0.03,Wunderground v.1.15,2013-03-04 19:40:00,
2013-03-04 14:46:00,44.0,26.0,30.11,SSW,204,2.0,3.0,49,0.00,,,0.03,Wunderground v.1.15,2013-03-04 19:46:00,
2013-03-04 14:51:00,43.7,23.2,30.11,NE,46,2.0,2.0,44,0.00,,,0.03,Wunderground v.1.15,2013-03-04 19:51:00,
2013-03-04 14:57:00,43.1,24.2,30.11,SSE,165,2.0,6.0,47,0.00,,,0.03,Wunderground v.1.15,2013-03-04 19:57:00,
2013-03-04 15:02:00,44.1,24.6,30.11,East,97,2.0,3.0,46,0.00,,,0.03,Wunderground v.1.15,2013-03-04 20:02:00,
2013-03-04 15:08:00,44.9,26.4,30.11,NNE,22,2.0,3.0,48,0.00,,,0.03,Wunderground v.1.15,2013-03-04 20:08:00,
2013-03-04 15:14:00,45.2,25.6,30.11,SE,139,2.0,6.0,46,0.00,,,0.03,Wunderground v.1.15,2013-03-04 20:14:00,
2013-03-04 15:20:00,44.7,23.0,30.10,ESE,104,4.0,4.0,42,0.00,,,0.03,Wunderground v.1.15,2013-03-04 20:20:00,
2013-03-04 15:25:00,44.3,24.3,30.10,SE,133,2.0,4.0,45,0.00,,,0.03,Wunderground v.1.15,2013-03-04 20:25:00,
2013-03-04 15:31:00,44.1,24.1,30.10,ENE,76,2.0,2.0,45,0.00,,,0.03,Wunderground v.1.15,2013-03-04 20:31:00,
2013-03-04 15:37:00,44.0,24.0,30.09,ENE,75,1.0,2.0,45,0.00,,,0.03,Wunderground v.1.15,2013-03-04 20:37:00,
2013-03-04 15:43:00,44.2,25.2,30.10,SSE,158,1.0,5.0,47,0.00,,,0.03,Wunderground v.1.15,2013-03-04 20:43:00,
2013-03-04 15:48:00,44.3,24.8,30.10,SE,142,3.0,7.0,46,0.00,,,0.03,Wunderground v.1.15,2013-03-04 20:48:00,
2013-03-04 15:54:00,44.3,24.3,30.09,ENE,75,3.0,4.0,45,0.00,,,0.03,Wunderground v.1.15,2013-03-04 20:54:00,
2013-03-04 16:00:00,44.6,24.0,30.09,East,86,2.0,3.0,44,0.00,,,0.03,Wunderground v.1.15,2013-03-04 21:00:00,
2013-03-04 16:06:00,44.7,25.2,30.09,East,91,3.0,6.0,46,0.00,,,0.03,Wunderground v.1.15,2013-03-04 21:06:00,
2013-03-04 16:12:00,44.6,24.5,30.09,East,89,3.0,4.0,45,0.00,,,0.03,Wunderground v.1.15,2013-03-04 21:12:00,
2013-03-04 16:18:00,44.1,24.6,30.09,SE,132,2.0,4.0,46,0.00,,,0.03,Wunderground v.1.15,2013-03-04 21:18:00,
2013-03-04 16:24:00,43.9,23.9,30.09,East,94,2.0,3.0,45,0.00,,,0.03,Wunderground v.1.15,2013-03-04 21:24:00,
2013-03-04 16:29:00,43.9,24.4,30.09,SE,138,2.0,5.0,46,0.00,,,0.03,Wunderground v.1.15,2013-03-04 21:29:00,
2013-03-04 16:35:00,44.0,22.9,30.08,ESE,108,2.0,4.0,43,0.00,,,0.03,Wunderground v.1.15,2013-03-04 21:35:00,
2013-03-04 16:41:00,44.0,23.5,30.08,SSE,148,2.0,2.0,44,0.00,,,0.03,Wunderground v.1.15,2013-03-04 21:41:00,
2013-03-04 16:47:00,44.1,25.1,30.08,SSE,155,2.0,3.0,47,0.00,,,0.03,Wunderground v.1.15,2013-03-04 21:47:00,
2013-03-04 16:52:00,44.1,25.1,30.08,SE,141,2.0,4.0,47,0.00,,,0.03,Wunderground v.1.15,2013-03-04 21:52:00,
2013-03-04 16:57:00,44.0,25.0,30.08,SE,125,2.0,5.0,47,0.00,,,0.03,Wunderground v.1.15,2013-03-04 21:57:00,
2013-03-04 17:03:00,43.8,24.9,30.08,ESE,105,3.0,4.0,47,0.00,,,0.03,Wunderground v.1.15,2013-03-04 22:03:00,
2013-03-04 17:09:00,43.6,24.2,30.08,ESE,121,3.0,5.0,46,0.00,,,0.03,Wunderground v.1.15,2013-03-04 22:09:00,
2013-03-04 17:15:00,43.5,25.1,30.07,ESE,103,3.0,3.0,48,0.00,,,0.03,Wunderground v.1.15,2013-03-04 22:15:00,
2013-03-04 17:21:00,43.5,26.1,30.07,East,89,2.0,2.0,50,0.00,,,0.03,Wunderground v.1.15,2013-03-04 22:21:00,
2013-03-04 17:26:00,43.5,25.1,30.07,ESE,121,2.0,2.0,48,0.00,,,0.03,Wunderground v.1.15,2013-03-04 22:26:00,
2013-03-04 17:32:00,43.5,25.6,30.07,ESE,106,1.0,2.0,49,0.00,,,0.03,Wunderground v.1.15,2013-03-04 22:32:00,
2013-03-04 17:38:00,43.4,26.5,30.07,ESE,103,1.0,2.0,51,0.00,,,0.03,Wunderground v.1.15,2013-03-04 22:38:00,
2013-03-04 17:45:00,43.3,26.8,30.07,ESE,115,1.0,1.0,52,0.00,,,0.03,Wunderground v.1.15,2013-03-04 22:45:00,
2013-03-04 17:51:00,43.1,27.1,30.07,SE,124,1.0,1.0,53,0.00,,,0.03,Wunderground v.1.15,2013-03-04 22:51:00,
2013-03-04 17:57:00,43.1,26.7,30.07,ESE,108,0.0,2.0,52,0.00,,,0.03,Wunderground v.1.15,2013-03-04 22:57:00,
2013-03-04 18:02:00,43.1,26.7,30.07,ESE,107,1.0,1.0,52,0.00,,,0.03,Wunderground v.1.15,2013-03-04 23:02:00,
2013-03-04 18:07:00,43.0,27.9,30.07,ESE,107,0.0,1.0,55,0.00,,,0.03,Wunderground v.1.15,2013-03-04 23:07:00,
2013-03-04 18:13:00,42.8,27.7,30.08,ESE,107,0.0,0.0,55,0.00,,,0.03,Wunderground v.1.15,2013-03-04 23:13:00,
2013-03-04 18:19:00,42.6,27.1,30.08,ESE,117,0.0,1.0,54,0.00,,,0.03,Wunderground v.1.15,2013-03-04 23:19:00,
2013-03-04 18:24:00,42.7,27.6,30.07,East,82,0.0,1.0,55,0.00,,,0.03,Wunderground v.1.15,2013-03-04 23:24:00,
2013-03-04 18:30:00,42.7,27.6,30.07,East,86,1.0,1.0,55,0.00,,,0.03,Wunderground v.1.15,2013-03-04 23:30:00,
2013-03-04 18:36:00,42.8,26.8,30.07,East,86,2.0,4.0,53,0.00,,,0.03,Wunderground v.1.15,2013-03-04 23:36:00,
2013-03-04 18:42:00,42.8,26.8,30.07,East,93,3.0,3.0,53,0.00,,,0.03,Wunderground v.1.15,2013-03-04 23:42:00,
2013-03-04 18:47:00,42.8,26.4,30.07,East,96,2.0,4.0,52,0.00,,,0.03,Wunderground v.1.15,2013-03-04 23:47:00,
2013-03-04 18:53:00,42.7,27.6,30.07,East,101,2.0,3.0,55,0.00,,,0.03,Wunderground v.1.15,2013-03-04 23:53:00,
2013-03-04 18:59:00,42.4,27.4,30.07,East,84,1.0,3.0,55,0.00,,,0.03,Wunderground v.1.15,2013-03-04 23:59:00,
2013-03-04 19:05:00,42.3,27.3,30.07,ESE,119,2.0,2.0,55,0.00,,,0.03,Wunderground v.1.15,2013-03-05 00:05:00,
2013-03-04 19:11:00,42.1,28.4,30.07,ESE,114,2.0,2.0,58,0.00,,,0.03,Wunderground v.1.15,2013-03-05 00:11:00,
2013-03-04 19:17:00,41.8,29.3,30.08,ESE,120,1.0,2.0,61,0.00,,,0.03,Wunderground v.1.15,2013-03-05 00:17:00,
2013-03-04 19:23:00,41.6,29.1,30.07,East,87,1.0,4.0,61,0.00,,,0.03,Wunderground v.1.15,2013-03-05 00:23:00,
2013-03-04 19:29:00,41.6,28.3,30.06,East,79,4.0,7.0,59,0.00,,,0.03,Wunderground v.1.15,2013-03-05 00:29:00,
2013-03-04 19:34:00,41.3,28.4,30.07,East,85,5.0,5.0,60,0.00,,,0.04,Wunderground v.1.15,2013-03-05 00:34:00,
2013-03-04 19:40:00,41.0,29.0,30.06,East,95,3.0,3.0,62,0.00,,,0.04,Wunderground v.1.15,2013-03-05 00:40:00,
2013-03-04 19:45:00,40.7,29.1,30.06,East,85,2.0,4.0,63,0.00,,,0.04,Wunderground v.1.15,2013-03-05 00:45:00,
2013-03-04 19:50:00,40.5,28.9,30.06,East,86,2.0,2.0,63,0.00,,,0.04,Wunderground v.1.15,2013-03-05 00:50:00,
2013-03-04 19:56:00,40.4,28.8,30.06,ESE,102,2.0,3.0,63,0.00,,,0.04,Wunderground v.1.15,2013-03-05 00:56:00,
2013-03-04 20:02:00,40.4,28.4,30.06,East,94,2.0,2.0,62,0.00,,,0.04,Wunderground v.1.15,2013-03-05 01:02:00,
2013-03-04 20:08:00,40.5,28.5,30.05,ENE,78,2.0,4.0,62,0.00,,,0.04,Wunderground v.1.15,2013-03-05 01:08:00,
2013-03-04 20:13:00,40.4,28.8,30.05,ENE,70,3.0,4.0,63,0.00,,,0.04,Wunderground v.1.15,2013-03-05 01:13:00,
2013-03-04 20:19:00,40.4,28.8,30.04,East,83,4.0,6.0,63,0.00,,,0.04,Wunderground v.1.15,2013-03-05 01:19:00,
2013-03-04 20:24:00,40.5,28.5,30.04,East,89,5.0,7.0,62,0.00,,,0.04,Wunderground v.1.15,2013-03-05 01:24:00,
2013-03-04 20:30:00,40.6,28.2,30.05,SE,124,5.0,6.0,61,0.00,,,0.04,Wunderground v.1.15,2013-03-05 01:30:00,
2013-03-04 20:47:00,40.5,28.1,30.04,East,98,3.0,6.0,61,0.00,,,0.04,Wunderground v.1.15,2013-03-05 01:47:00,
2013-03-04 20:52:00,40.6,28.2,30.04,East,91,5.0,6.0,61,0.00,,,0.04,Wunderground v.1.15,2013-03-05 01:52:00,
2013-03-04 20:58:00,40.5,28.1,30.03,East,80,5.0,5.0,61,0.00,,,0.04,Wunderground v.1.15,2013-03-05 01:58:00,
2013-03-04 21:04:00,40.5,28.1,30.04,ESE,110,5.0,6.0,61,0.00,,,0.04,Wunderground v.1.15,2013-03-05 02:04:00,
2013-03-04 21:10:00,40.5,28.1,30.04,ESE,105,5.0,5.0,61,0.00,,,0.04,Wunderground v.1.15,2013-03-05 02:10:00,
2013-03-04 21:15:00,40.5,28.1,30.04,ENE,74,5.0,7.0,61,0.00,,,0.04,Wunderground v.1.15,2013-03-05 02:15:00,
2013-03-04 21:21:00,40.6,28.2,30.04,East,86,5.0,5.0,61,0.00,,,0.04,Wunderground v.1.15,2013-03-05 02:21:00,
2013-03-04 21:26:00,40.6,27.8,30.04,ENE,74,5.0,7.0,60,0.00,,,0.04,Wunderground v.1.15,2013-03-05 02:26:00,
2013-03-04 21:32:00,40.6,28.2,30.05,East,83,4.0,5.0,61,0.00,,,0.04,Wunderground v.1.15,2013-03-05 02:32:00,
2013-03-04 21:38:00,40.5,28.1,30.05,East,89,4.0,5.0,61,0.00,,,0.04,Wunderground v.1.15,2013-03-05 02:38:00,
2013-03-04 21:44:00,40.4,27.6,30.05,East,85,4.0,6.0,60,0.00,,,0.04,Wunderground v.1.15,2013-03-05 02:44:00,
2013-03-04 21:50:00,40.3,28.3,30.05,ENE,72,4.0,4.0,62,0.00,,,0.04,Wunderground v.1.15,2013-03-05 02:50:00,
2013-03-04 21:55:00,40.3,27.9,30.05,East,94,3.0,4.0,61,0.00,,,0.04,Wunderground v.1.15,2013-03-05 02:55:00,
2013-03-04 22:01:00,40.3,28.3,30.05,ESE,115,3.0,3.0,62,0.00,,,0.04,Wunderground v.1.15,2013-03-05 03:01:00,
2013-03-04 22:07:00,39.7,29.3,30.05,ESE,121,1.0,3.0,66,0.00,,,0.04,Wunderground v.1.15,2013-03-05 03:07:00,
2013-03-04 22:12:00,39.5,28.7,30.06,ESE,113,0.0,1.0,65,0.00,,,0.04,Wunderground v.1.15,2013-03-05 03:12:00,
2013-03-04 22:18:00,39.5,29.1,30.06,ESE,118,0.0,1.0,66,0.00,,,0.04,Wunderground v.1.15,2013-03-05 03:18:00,
2013-03-04 22:23:00,39.4,29.0,30.06,ESE,103,0.0,1.0,66,0.00,,,0.04,Wunderground v.1.15,2013-03-05 03:23:00,
2013-03-04 22:29:00,39.4,28.6,30.06,ESE,108,0.0,1.0,65,0.00,,,0.04,Wunderground v.1.15,2013-03-05 03:29:00,
2013-03-04 22:35:00,39.6,28.4,30.06,ENE,71,0.0,2.0,64,0.00,,,0.04,Wunderground v.1.15,2013-03-05 03:35:00,
2013-03-04 22:41:00,39.7,28.5,30.06,ESE,104,0.0,0.0,64,0.00,,,0.04,Wunderground v.1.15,2013-03-05 03:41:00,
2013-03-04 22:46:00,39.6,28.4,30.06,East,91,0.0,1.0,64,0.00,,,0.04,Wunderground v.1.15,2013-03-05 03:46:00,
2013-03-04 22:52:00,39.6,28.4,30.06,East,83,1.0,2.0,64,0.00,,,0.04,Wunderground v.1.15,2013-03-05 03:52:00,
2013-03-04 22:58:00,39.7,28.9,30.05,SE,146,1.0,2.0,65,0.00,,,0.04,Wunderground v.1.15,2013-03-05 03:58:00,
2013-03-04 23:03:00,39.3,29.6,30.05,ESE,102,1.0,1.0,68,0.00,,,0.04,Wunderground v.1.15,2013-03-05 04:03:00,
2013-03-04 23:09:00,39.1,29.4,30.05,ESE,121,0.0,1.0,68,0.00,,,0.04,Wunderground v.1.15,2013-03-05 04:09:00,
2013-03-04 23:14:00,39.0,29.3,30.05,East,83,0.0,1.0,68,0.00,,,0.04,Wunderground v.1.15,2013-03-05 04:14:00,
2013-03-04 23:20:00,39.3,28.1,30.05,SE,124,0.0,0.0,64,0.00,,,0.04,Wunderground v.1.15,2013-03-05 04:20:00,
2013-03-04 23:25:00,39.3,28.1,30.05,ESE,106,1.0,2.0,64,0.00,,,0.04,Wunderground v.1.15,2013-03-05 04:25:00,
2013-03-04 23:31:00,39.5,27.9,30.04,East,80,2.0,3.0,63,0.00,,,0.04,Wunderground v.1.15,2013-03-05 04:31:00,
2013-03-04 23:37:00,39.6,27.6,30.04,ENE,69,3.0,6.0,62,0.00,,,0.04,Wunderground v.1.15,2013-03-05 04:37:00,
2013-03-04 23:43:00,39.6,27.2,30.04,East,96,3.0,3.0,61,0.00,,,0.04,Wunderground v.1.15,2013-03-05 04:43:00,
2013-03-04 23:48:00,39.7,27.7,30.04,ESE,103,2.0,3.0,62,0.00,,,0.04,Wunderground v.1.15,2013-03-05 04:48:00,
2013-03-04 23:54:00,39.3,28.1,30.04,East,100,1.0,2.0,64,0.00,,,0.04,Wunderground v.1.15,2013-03-05 04:54:00,